GW0383 Weather Reports


time (UTC)temp
C
wind
direction
speed
KPH
gust
KPH
rain 1hr
cm
rain 24hr
cm
rain mn
cm
humidity
%
barometer
mb
20260504192104 24 166 3.2 14.5 0.00 0.00 0.00 34 1005.9
20260504191602 23 171 3.2 4.8 0.00 0.00 0.00 35 1005.8
20260504191058 23 163 1.6 4.8 0.00 0.00 0.00 34 1005.8
20260504190554 25 160 3.2 4.8 0.00 0.00 0.00 33 1005.9
20260504190050 26 138 0.0 11.3 0.00 0.00 0.00 32 1006.1
20260504185548 25 149 1.6 4.8 0.00 0.00 0.00 34 1006.3
20260504185044 23 181 3.2 4.8 0.00 0.00 0.00 35 1006.1
20260504184539 23 72 3.2 4.8 0.00 0.00 0.00 33 1006.2
20260504184035 23 206 4.8 9.7 0.00 0.00 0.00 33 1006.5
20260504183532 24 125 1.6 4.8 0.00 0.00 0.00 31 1006.4
20260504183030 23 193 3.2 4.8 0.00 0.00 0.00 36 1006.7
20260504182527 22 170 0.0 8.0 0.00 0.00 0.00 36 1006.5
20260504182024 23 109 0.0 3.2 0.00 0.00 0.00 35 1006.8
20260504181521 23 133 1.6 3.2 0.00 0.00 0.00 33 1007.0
20260504181020 23 148 1.6 11.3 0.00 0.00 0.00 32 1006.8
20260504180518 23 142 1.6 8.0 0.00 0.00 0.00 34 1007.1
20260504180017 22 147 1.6 4.8 0.00 0.00 0.00 36 1007.3
20260504175513 22 148 0.0 3.2 0.00 0.00 0.00 36 1007.1
20260504175011 22 139 1.6 3.2 0.00 0.00 0.00 35 1007.3
20260504174508 21 99 4.8 11.3 0.00 0.00 0.00 37 1007.3
20260504174005 22 154 3.2 4.8 0.00 0.00 0.00 36 1007.2
20260504173502 22 190 6.4 9.7 0.00 0.00 0.00 36 1007.6
20260504172959 21 191 3.2 8.0 0.00 0.00 0.00 37 1007.6
20260504172455 22 203 3.2 8.0 0.00 0.00 0.00 39 1007.7
20260504171951 21 128 1.6 4.8 0.00 0.00 0.00 36 1007.6
20260504171449 21 176 1.6 4.8 0.00 0.00 0.00 39 1007.8
20260504170945 22 122 1.6 9.7 0.00 0.00 0.00 36 1008.0
20260504170442 22 127 4.8 8.0 0.00 0.00 0.00 37 1007.8
20260504160402 20 195 4.8 4.8 0.00 0.00 0.00 39 1008.8
20260504150826 18 144 0.0 3.2 0.00 0.00 0.00 42 1009.4
20260504150322 18 127 0.0 1.6 0.00 0.00 0.00 44 1009.3
20260504141252 16 160 3.2 3.2 0.00 0.00 0.00 48 1009.4
20260504140749 15 149 1.6 3.2 0.00 0.00 0.00 49 1009.6
20260504140244 15 129 0.0 0.0 0.00 0.00 0.00 51 1009.7
20260504130713 12 108 0.0 3.2 0.00 0.00 0.00 54 1010.0
20260504130209 12 113 0.0 3.2 0.00 0.00 0.00 53 1009.9
20260504120133 11 132 0.0 1.6 0.00 0.00 0.00 41 1010.0
20260504110600 10 147 0.0 1.6 0.00 0.00 0.00 43 1010.3
20260504100522 10 151 0.0 1.6 0.00 0.00 0.00 43 1010.1
20260504081916 11 150 0.0 0.0 0.00 0.00 0.00 37 1010.5
20260504081413 11 152 0.0 0.0 0.00 0.00 0.00 38 1010.7
20260504080908 11 145 0.0 0.0 0.00 0.00 0.00 40 1010.4
20260504080405 11 176 0.0 0.0 0.00 0.00 0.00 39 1010.4
20260504070333 10 157 0.0 0.0 0.00 0.00 0.00 40 1010.3
20260504050715 11 102 0.0 0.0 0.00 0.00 0.00 38 1010.9
20260504050213 11 103 0.0 0.0 0.00 0.00 0.00 39 1011.0
20260504045710 11 106 0.0 0.0 0.00 0.00 0.00 37 1010.8
20260504045209 12 117 0.0 0.0 0.00 0.00 0.00 37 1010.8
20260504044708 12 122 0.0 0.0 0.00 0.00 0.00 37 1011.1
20260504044205 12 127 0.0 0.0 0.00 0.00 0.00 37 1011.2
20260504043702 12 127 0.0 0.0 0.00 0.00 0.00 38 1010.9
20260504043158 12 127 0.0 0.0 0.00 0.00 0.00 38 1011.0
20260504042656 12 127 0.0 0.0 0.00 0.00 0.00 38 1010.8
20260504042152 12 127 0.0 0.0 0.00 0.00 0.00 38 1010.5
20260504041648 12 127 0.0 0.0 0.00 0.00 0.00 38 1010.7
20260504041144 12 127 0.0 0.0 0.00 0.00 0.00 38 1010.8
20260504040641 12 127 0.0 0.0 0.00 0.00 0.00 38 1010.7
20260504040138 12 127 0.0 0.0 0.00 0.00 0.00 38 1010.8
20260504035635 12 127 0.0 0.0 0.00 0.00 0.00 38 1010.8
20260504035132 12 127 0.0 0.0 0.00 0.00 0.00 38 1010.7
20260504034630 12 127 0.0 0.0 0.00 0.00 0.00 37 1011.0
20260504034126 11 127 0.0 0.0 0.00 0.00 0.00 37 1010.7
20260504033624 11 127 0.0 0.0 0.00 0.00 0.00 37 1010.7
20260504033121 11 127 0.0 0.0 0.00 0.00 0.00 37 1010.9
20260504032618 11 128 0.0 0.0 0.00 0.00 0.00 36 1010.9
20260504032115 11 115 0.0 0.0 0.00 0.00 0.00 37 1010.8
20260504031612 11 114 0.0 0.0 0.00 0.00 0.00 38 1010.8
20260504031108 11 114 0.0 0.0 0.00 0.00 0.00 37 1010.8
20260504030605 11 136 0.0 0.0 0.00 0.00 0.00 37 1010.7
20260504025559 11 137 0.0 0.0 0.00 0.00 0.00 36 1010.9
20260504025055 11 135 0.0 0.0 0.00 0.00 0.00 36 1010.8
20260504024553 11 144 0.0 0.0 0.00 0.00 0.00 36 1010.8
20260504024049 11 142 0.0 0.0 0.00 0.00 0.00 36 1010.8
20260504023546 11 141 0.0 0.0 0.00 0.00 0.00 36 1010.8
20260504023042 11 142 0.0 0.0 0.00 0.00 0.00 35 1011.0
20260504022538 11 177 1.6 3.2 0.00 0.00 0.00 35 1011.0
20260504022034 11 141 0.0 0.0 0.00 0.00 0.00 35 1010.9
20260504021532 11 149 0.0 0.0 0.00 0.00 0.00 34 1010.7
20260504021029 11 145 0.0 0.0 0.00 0.00 0.00 34 1010.9
20260504020526 11 128 0.0 0.0 0.00 0.00 0.00 34 1010.8
20260504020022 12 121 0.0 0.0 0.00 0.00 0.00 33 1010.7
20260504015518 12 120 0.0 0.0 0.00 0.00 0.00 34 1010.7
20260504015015 12 132 0.0 1.6 0.00 0.00 0.00 33 1010.4
20260504014511 12 114 0.0 0.0 0.00 0.00 0.00 33 1010.8
20260504014008 12 134 0.0 0.0 0.00 0.00 0.00 32 1010.5
20260504013506 12 149 0.0 0.0 0.00 0.00 0.00 32 1010.3
20260504013002 12 150 0.0 0.0 0.00 0.00 0.00 32 1010.0
20260504012500 12 150 0.0 0.0 0.00 0.00 0.00 33 1010.2
20260504011958 12 150 0.0 0.0 0.00 0.00 0.00 33 1010.2
20260504011454 12 150 0.0 0.0 0.00 0.00 0.00 34 1010.0
20260504010950 12 150 0.0 0.0 0.00 0.00 0.00 32 1010.1
20260504010446 12 150 0.0 0.0 0.00 0.00 0.00 31 1010.0
20260504005942 12 150 0.0 0.0 0.00 0.00 0.00 30 1010.1
20260504005439 12 150 0.0 0.0 0.00 0.00 0.00 30 1009.9
20260504004937 13 150 0.0 0.0 0.00 0.00 0.00 29 1010.0
20260504004434 13 150 0.0 0.0 0.00 0.00 0.00 29 1009.7
20260504003931 13 150 0.0 0.0 0.00 0.00 0.00 28 1009.6
20260504003427 13 150 0.0 0.0 0.00 0.00 0.00 29 1010.0
20260504002924 13 150 0.0 0.0 0.00 0.00 0.00 28 1009.6
20260504002421 13 150 0.0 0.0 0.00 0.00 0.00 29 1009.8
20260504001918 13 150 0.0 0.0 0.00 0.00 0.00 29 1009.5
20260504001416 13 150 0.0 0.0 0.00 0.00 0.00 29 1009.5
20260504000912 13 150 0.0 1.6 0.00 0.00 0.00 29 1009.6
20260504000409 13 145 0.0 0.0 0.00 0.00 0.00 29 1009.7
20260503235907 13 155 1.6 3.2 0.00 0.00 0.00 30 1009.6
20260503235405 13 172 3.2 3.2 0.00 0.00 0.00 29 1009.7
20260503234902 15 154 1.6 3.2 0.00 0.00 0.00 30 1009.8
20260503234359 15 170 3.2 3.2 0.00 0.00 0.00 29 1009.7
20260503233857 15 154 1.6 1.6 0.00 0.00 0.00 33 1009.9
20260503233353 15 154 0.0 3.2 0.00 0.00 0.00 30 1009.8
20260503232850 16 177 3.2 3.2 0.00 0.00 0.00 29 1009.9
20260503232347 16 178 4.8 4.8 0.00 0.00 0.00 27 1009.4
20260503231845 16 149 0.0 1.6 0.00 0.00 0.00 27 1009.7
20260503231342 16 203 3.2 3.2 0.00 0.00 0.00 26 1009.5
20260503230838 16 161 0.0 1.6 0.00 0.00 0.00 29 1009.5
20260503230335 16 173 1.6 3.2 0.00 0.00 0.00 26 1009.3
20260503225833 16 196 1.6 3.2 0.00 0.00 0.00 27 1009.5
20260503225328 16 185 1.6 4.8 0.00 0.00 0.00 26 1009.2
20260503224825 16 181 1.6 4.8 0.00 0.00 0.00 28 1009.5
20260503224322 17 232 6.4 8.0 0.00 0.00 0.00 26 1009.4
20260503223820 16 180 3.2 4.8 0.00 0.00 0.00 28 1009.3
20260503223317 16 213 6.4 9.7 0.00 0.00 0.00 27 1009.2
20260503222813 16 204 6.4 9.7 0.00 0.00 0.00 26 1009.6
20260503222311 17 154 3.2 4.8 0.00 0.00 0.00 26 1009.9
20260503221809 17 221 6.4 8.0 0.00 0.00 0.00 25 1009.3
20260503221308 17 183 3.2 4.8 0.00 0.00 0.00 27 1009.6
20260503220803 17 190 4.8 8.0 0.00 0.00 0.00 26 1009.6
20260503220300 17 216 6.4 8.0 0.00 0.00 0.00 26 1009.6
20260503215757 17 157 3.2 4.8 0.00 0.00 0.00 28 1009.7
20260503215254 17 162 4.8 4.8 0.00 0.00 0.00 26 1009.5
20260503214752 17 166 3.2 4.8 0.00 0.00 0.00 27 1009.6
20260503214249 17 231 6.4 8.0 0.00 0.00 0.00 26 1009.6
20260503213746 17 200 4.8 8.0 0.00 0.00 0.00 25 1009.7
20260503213244 17 217 9.7 11.3 0.00 0.00 0.00 25 1009.8
20260503212740 17 224 4.8 9.7 0.00 0.00 0.00 26 1009.5
20260503212238 17 185 4.8 11.3 0.00 0.00 0.00 25 1009.7
20260503211735 17 225 9.7 16.1 0.00 0.00 0.00 26 1009.9
20260503211231 17 191 8.0 11.3 0.00 0.00 0.00 27 1009.9
20260503210727 17 188 4.8 8.0 0.00 0.00 0.00 27 1009.9
20260503210225 17 200 8.0 11.3 0.00 0.00 0.00 25 1010.0
20260503205720 18 215 4.8 9.7 0.00 0.00 0.00 27 1010.0
20260503205216 17 175 3.2 4.8 0.00 0.00 0.00 28 1010.1
20260503204713 17 212 4.8 8.0 0.00 0.00 0.00 28 1010.1
20260503204211 17 212 9.7 11.3 0.00 0.00 0.00 25 1010.1
20260503203707 17 220 6.4 9.7 0.00 0.00 0.00 27 1010.0
20260503203205 17 153 3.2 8.0 0.00 0.00 0.00 27 1010.0
20260503202702 18 213 9.7 12.9 0.00 0.00 0.00 27 1010.2
20260503202200 17 210 3.2 11.3 0.00 0.00 0.00 30 1010.3
20260503201658 16 197 3.2 9.7 0.00 0.00 0.00 26 1010.3
20260503201155 16 190 4.8 9.7 0.00 0.00 0.00 29 1010.1
20260503200651 17 205 4.8 8.0 0.00 0.00 0.00 28 1010.5
20260503200147 17 207 4.8 9.7 0.00 0.00 0.00 27 1010.7
20260503195644 17 190 3.2 4.8 0.00 0.00 0.00 29 1010.4
20260503195142 16 211 4.8 11.3 0.00 0.00 0.00 29 1010.7
20260503194638 16 208 4.8 11.3 0.00 0.00 0.00 28 1010.4
20260503194133 16 218 8.0 9.7 0.00 0.00 0.00 27 1010.8
20260503193631 16 179 9.7 11.3 0.00 0.00 0.00 29 1011.0
20260503193126 15 174 4.8 12.9 0.00 0.00 0.00 30 1011.1
20260503192622 16 223 8.0 12.9 0.00 0.00 0.00 28 1011.2